Location: Franzen
(48.6167°N, 15.3833°E)
Time: 12:06:20
(UTC+00:00)

ARIANE 5 R/B - Pass Details

Date: 22 April 2021
Orbit: 620 x 656 km, 98.1° (Epoch: 11 May)

Event Time Altitude Azimuth Distance (km) Brightness Sun altitude
Exits shadow 20:04:04 36° 151° (SSE) 1,007 3.1 -18.0°
Maximum altitude 20:05:49 75° 73° (ENE) 659 2.5 -18.2°
Drops below altitude 10° 20:10:12 10° 349° (N) 2,016 6.0 -18.7°
Sets 20:12:23 0° 348° (NNW) 2,923 7.0 -18.9°
